Location: Bartlow
(52.0833°N, 0.3167°E)
Time: 12:06:15
(UTC+00:00)

YAOGAN 6 - Pass Details

Date: 26 September 2023
Orbit: 432 x 459 km, 97.1° (Epoch: 28 November)

Event Time Altitude Azimuth Distance (km) Brightness Sun altitude
Rises 05:04:48 0° 359° (N) 2,442 6.2 -7.9°
Reaches altitude 10° 05:07:19 10° 339° (NNW) 1,574 5.0 -7.5°
Maximum altitude 05:09:33 17° 297° (WNW) 1,215 4.1 -7.1°
Drops below altitude 10° 05:11:48 10° 255° (WSW) 1,579 4.5 -6.8°
Enters shadow 05:12:15 - 250° (WSW) 1,718 4.7 -6.7°
